Traverse City, MI

3:13 AM EDT on September 22, 2017 (GMT -0400)
Cherry Capital

Weather History for KTVC - December, 2012

Change the Weather History Date:

Wednesday, December 19, 2012

  Actual Average Record
Temperature  
Mean Temperature 34 °F 26 °F  
Max Temperature 39 °F 31 °F 59 °F (1913)
Min Temperature 29 °F 20 °F -9 °F (1983)
Degree Days  
Heating Degree Days 31 39  
Month to date heating degree days 535 697  
Since 1 July heating degree days 2017 2316  
Moisture  
Dew Point 29 °F    
Average Humidity 78    
Maximum Humidity 92    
Minimum Humidity 64    
Precipitation  
Precipitation T in 0.08 in 0.36 in (1968)
Month to date precipitation 1.21 1.51  
Year to date precipitation 29.06 32.07  
Sea Level Pressure  
Sea Level Pressure 29.99 in    
Wind  
Wind Speed 1 mph (SW)    
Max Wind Speed 7 mph    
Max Gust Speed 10 mph    
Visibility 10 miles    
Events      
T = Trace of Precipitation, MM = Missing Value Source: NWS Daily Summary

Daily Weather History Graph

Daily Weather History Graph

Search for Another Location

Airport or City:

Trip Planner

Search our weather history database for the weather conditions in past years. The results will help you decide how hot, cold, wet, or windy it might be!

Date:

Astronomy

Dec. 19, 2012 Rise Set
Actual Time 8:15 AM EST 5:03 PM EST
Civil Twilight 7:42 AM EST 5:37 PM EST
Nautical Twilight 7:04 AM EST 6:14 PM EST
Astronomical Twilight 6:29 AM EST 6:50 PM EST
Moon 12:08 PM EST (12/19) No Moon Set
Length of Visible Light 9h 55m
Length of Day
8h 48m
Waxing Crescent, 45% of the Moon is Illuminated
Dec 19
Waxing Crescent
Dec 20
First Quarter
Dec 28
Full
Jan 4
Last Quarter
Jan 11
New

Hourly Weather History & Observations

Time (EST) Temp. Windchill Dew Point Humidity Pressure Visibility Wind Dir Wind Speed Gust Speed Precip Events Conditions
12:53 AM 32.0 °F - 28.9 °F 88% 29.79 in 10.0 mi Calm Calm - N/A   Overcast
1:53 AM 32.0 °F - 28.9 °F 88% 29.81 in 10.0 mi Calm Calm - N/A   Overcast
2:53 AM 32.0 °F - 28.9 °F 88% 29.83 in 10.0 mi Calm Calm - N/A   Overcast
3:53 AM 30.0 °F - 27.0 °F 88% 29.85 in 8.0 mi Calm Calm - N/A   Clear
4:53 AM 30.0 °F - 27.0 °F 88% 29.88 in 10.0 mi Calm Calm - N/A   Overcast
5:53 AM 30.0 °F - 28.0 °F 92% 29.89 in 10.0 mi Calm Calm - N/A   Mostly Cloudy
6:53 AM 30.9 °F - 28.9 °F 92% 29.91 in 9.0 mi Calm Calm - N/A   Overcast
7:53 AM 28.9 °F - 27.0 °F 92% 29.93 in 8.0 mi Calm Calm - N/A   Mostly Cloudy
8:53 AM 30.9 °F - 28.9 °F 92% 29.96 in 8.0 mi Calm Calm - N/A   Overcast
9:53 AM 33.1 °F - 30.0 °F 89% 29.98 in 10.0 mi Calm Calm - N/A   Mostly Cloudy
10:53 AM 36.0 °F 33.3 °F 32.0 °F 86% 30.02 in 10.0 mi SW 3.5 mph - N/A   Overcast
11:53 AM 37.0 °F 34.5 °F 33.1 °F 86% 30.03 in 8.0 mi Variable 3.5 mph - 0.00 in   Light Drizzle
12:26 PM 37.4 °F 34.9 °F 32.0 °F 81% 30.01 in 10.0 mi SW 3.5 mph - 0.00 in   Overcast
12:53 PM 37.9 °F 35.5 °F 30.9 °F 76% 30.03 in 10.0 mi SSW 3.5 mph - 0.00 in   Overcast
1:53 PM 37.9 °F 32.7 °F 28.9 °F 70% 30.03 in 10.0 mi SSW 6.9 mph - N/A   Overcast
2:53 PM 37.9 °F 33.5 °F 28.0 °F 68% 30.04 in 10.0 mi West 5.8 mph - N/A   Overcast
3:53 PM 37.9 °F 34.4 °F 28.9 °F 70% 30.04 in 10.0 mi West 4.6 mph - N/A   Overcast
4:53 PM 37.0 °F - 28.0 °F 70% 30.06 in 10.0 mi Calm Calm - N/A   Mostly Cloudy
5:53 PM 37.0 °F - 28.9 °F 73% 30.08 in 10.0 mi Calm Calm - N/A   Overcast
6:53 PM 37.0 °F - 28.9 °F 73% 30.10 in 10.0 mi Calm Calm - N/A   Overcast
7:53 PM 36.0 °F - 28.9 °F 76% 30.12 in 10.0 mi Calm Calm - N/A   Overcast
8:53 PM 37.0 °F - 27.0 °F 67% 30.08 in 10.0 mi Calm Calm - N/A   Mostly Cloudy
9:53 PM 34.0 °F - 28.0 °F 79% 30.08 in 10.0 mi Calm Calm - N/A   Mostly Cloudy
10:53 PM 35.1 °F - 27.0 °F 72% 30.08 in 10.0 mi Calm Calm - N/A   Overcast
11:53 PM 35.1 °F - 27.0 °F 72% 30.07 in 10.0 mi Calm Calm - N/A   Overcast